Temp
53 53 54 54 54 53 50 44 38 48 50 43 43 40 44 49 46 48 45 41 41 39 41 38 37 40 44 48 47 42 45 38 30 34 37 39 38 39 40 33 32 27 23 37
53 53 54 54 54 53 46 40 40 47 47 36 39 44 45 46 46 47 44 42 43 44 41 38 40 41 47 47 45 41 43 38 29 31 34 36 34 36 40 39 37 36 27 38
53 53 54 53 54 54 47 40 33 39 40 37 34 36 36 38 38 37 38 37 42 41 39 44 39 40 41 41 40 46 45 38 34 35 34 35 32 34 38 41 35 37 38 42
54 53 54 54 54 53 46 39 35 37 31 32 32 33 32 32 32 34 36 34 34 34 34 38 39 38 38 38 39 39 38 35 38 41 42 39 36 36 37 37 38 36 41 42
55 54 54 53 53 52 43 36 36 37 34 34 32 33 31 31 32 32 32 32 32 32 30 31 30 31 33 32 35 35 35 33 33 34 38 37 34 37 37 37 39 40 39 37
55 55 54 53 52 51 42 40 43 38 35 33 32 32 32 32 34 35 36 34 33 32 33 35 36 36 36 35 33 32 31 31 29 26 32 31 27 34 37 40 41 37 34 34
53 54 54 54 53 51 43 41 40 33 26 32 32 34 35 33 33 32 35 34 33 36 41 39 38 36 36 35 35 36 30 31 29 25 26 20 31 35 36 32 31 32 32 33
51 53 54 54 53 51 45 43 39 33 26 32 33 35 34 35 36 34 34 36 38 40 38 29 26 28 29 31 34 33 35 31 26 24 24 29 32 30 30 28 27 32 32 34
50 50 52 53 53 53 46 44 44 36 28 27 37 33 35 31 31 33 35 39 40 39 33 29 21 21 27 26 28 34 34 33 28 24 21 18 26 30 37 34 25 35 35 34
51 50 50 51 52 53 47 44 45 39 32 34 36 30 32 35 32 29 32 35 35 38 30 24 22 20 29 21 24 25 28 28 24 25 22 25 32 35 39 22 25 37 35 35
51 50 50 49 51 52 47 43 45 40 34 35 37 38 34 34 33 27 32 31 33 32 27 23 23 22 25 23 25 25 24 22 22 23 19 16 34 34 27 33 37 37 35 36
51 51 50 49 49 52 48 41 45 45 37 35 39 40 39 40 40 35 33 30 30 32 29 24 22 22 18 19 15 27 21 27 23 26 26 34 35 35 38 38 36 36 36 37
51 51 51 49 50 49 48 42 42 41 34 34 35 34 40 40 40 43 31 34 36 34 35 27 23 18 20 16 18 20 28 31 24 26 30 32 36 39 38 38 36 37 38 37
51 51 52 51 50 49 46 41 42 40 35 30 28 37 35 40 39 40 40 38 37 37 35 29 25 20 24 18 22 20 27 27 24 25 29 30 33 33 35 35 35 34 34 34
50 50 50 50 51 51 44 42 43 43 36 25 24 31 33 34 36 36 38 38 34 32 29 26 22 24 25 21 23 19 26 24 22 21 32 28 30 29 32 30 29 30 30 30
49 50 50 50 48 47 41 34 41 43 41 32 19 26 26 30 32 33 35 34 33 32 30 27 26 28 27 16 12 26 27 29 30 26 22 26 28 28 26 25 27 28 29 30
49 49 49 48 48 39 34 30 36 44 41 31 18 20 25 30 32 30 31 32 31 30 28 22 18 20 24 11 13 32 23 21 22 20 23 23 22 19 23 24 25 27 27 29
49 49 48 47 47 42 35 39 45 42 34 29 17 16 20 28 22 25 28 28 29 28 27 23 25 25 21 17 22 17 17 19 20 19 20 20 21 21 22 23 23 23 23 24
49 48 47 41 36 33 34 44 43 39 33 22 16 12 12 28 24 27 27 25 21 22 21 22 25 20 19 22 18 14 15 15 15 17 19 18 18 18 18 18 19 18 20 21
46 35 27 20 33 42 43 36 32 31 30 19 15 16 13 22 25 24 25 26 16 15 20 24 22 19 15 12 11 10 10 11 13 11 15 15 14 15 14 16 18 20 21 21
30 18 19 30 41 32 28 19 19 18 17 24 26 17 14 21 17 22 25 15 13 8 16 17 15 14 5 9 6 7 7 8 9 10 12 14 13 12 13 15 18 20 20 20
34 33 36 34 28 23 19 16 17 19 16 18 22 24 22 16 20 17 19 14 16 10 13 13 6 4 12 10 9 10 7 6 10 11 9 12 15 14 13 13 16 17 18 19
36 29 25 24 20 11 7 1 8 10 16 15 17 14 18 20 23 20 21 18 15 17 11 9 1 11 12 8 11 13 12 9 12 14 17 16 15 17 13 11 15 14 13 15
30 22 19 15 5 7 8 8 8 15 17 17 18 18 18 20 21 22 18 21 18 11 3 -0 3 7 9 9 12 10 10 10 10 12 14 13 13 13 14 14 12 10 11 15
23 20 13 12 13 10 9 10 14 15 16 15 16 17 20 18 18 18 17 14 9 5 0 7 11 13 13 13 14 12 11 9 9 10 9 11 11 10 10 13 10 9 11 12
18 15 12 16 11 10 12 12 12 13 13 17 18 15 15 11 15 12 10 8 3 6 11 15 16 15 14 14 14 14 13 12 12 11 11 12 11 9 10 9 7 8 9 10
12 7 14 13 13 12 11 10 9 9 8 8 9 6 6 7 5 6 8 4 9 11 11 14 14 10 8 9 11 12 12 11 9 7 8 8 8 -3 -3 4 10 8 11 10
MSLP
1016.29 1016.54 1016.81 1016.85 1016.74 1017.15 1017.20 1017.58 1018.25 1017.89 1017.82 1017.58 1016.41 1015.68 1015.59 1015.54 1015.38 1015.36 1015.47 1015.75 1015.78 1015.80 1015.67 1016.00 1016.11 1015.61 1014.99 1014.27 1014.56 1015.36 1015.25 1015.79 1016.53 1016.08 1016.04 1016.08 1016.10 1016.11 1016.44 1017.11 1016.91 1016.45 1015.65 1009.49
1016.19 1016.39 1016.54 1016.62 1016.81 1017.10 1017.46 1017.74 1018.09 1017.98 1017.86 1017.13 1016.37 1015.92 1015.76 1015.85 1015.91 1016.08 1016.06 1016.23 1015.97 1016.11 1016.05 1016.15 1015.70 1015.48 1015.18 1015.09 1015.26 1015.65 1015.57 1015.69 1016.11 1015.88 1016.45 1016.36 1016.11 1015.86 1015.46 1015.32 1015.33 1013.96 1014.97 1008.85
1016.05 1016.21 1016.27 1016.50 1016.79 1017.02 1017.56 1018.05 1018.50 1018.48 1018.33 1018.13 1017.52 1016.78 1016.73 1016.87 1017.59 1017.34 1017.39 1017.16 1016.75 1016.54 1016.38 1016.24 1016.01 1016.15 1016.30 1016.30 1016.50 1016.58 1016.18 1015.99 1015.68 1014.91 1015.31 1015.22 1015.78 1015.28 1015.25 1015.39 1014.55 1013.73 1011.34 1011.22
1015.60 1015.95 1016.14 1016.30 1016.61 1016.90 1017.61 1018.20 1018.47 1018.65 1018.70 1018.75 1018.33 1018.12 1018.04 1018.00 1018.60 1018.44 1018.47 1018.35 1017.99 1017.85 1017.60 1017.30 1017.05 1017.60 1017.64 1017.74 1017.94 1017.48 1017.42 1016.42 1016.25 1014.60 1015.04 1015.32 1015.20 1015.13 1015.11 1014.90 1014.03 1014.03 1010.48 1012.16
1015.03 1015.32 1015.87 1016.18 1016.55 1016.90 1017.64 1018.49 1018.61 1019.00 1019.03 1019.03 1019.01 1018.85 1018.83 1018.94 1019.18 1019.30 1019.49 1019.33 1019.31 1019.09 1019.32 1019.43 1019.25 1019.43 1019.38 1019.31 1019.12 1018.93 1018.91 1017.39 1017.05 1015.31 1015.40 1015.68 1015.19 1014.94 1014.93 1014.77 1014.36 1013.96 1013.44 1011.73
1014.57 1014.82 1015.22 1015.83 1016.42 1016.56 1017.55 1018.58 1018.56 1018.86 1019.25 1019.55 1019.53 1019.45 1019.45 1019.48 1019.66 1020.03 1020.04 1020.08 1020.09 1020.18 1020.42 1020.33 1020.34 1020.09 1020.11 1019.99 1020.11 1019.80 1019.60 1018.81 1018.16 1017.20 1016.57 1016.73 1015.90 1014.49 1014.42 1014.37 1014.53 1014.92 1014.70 1015.21
1014.49 1014.77 1014.77 1015.14 1015.86 1016.13 1017.03 1017.76 1018.36 1019.05 1019.58 1019.55 1019.53 1019.48 1019.75 1019.88 1019.96 1020.17 1020.37 1020.54 1020.45 1020.95 1020.68 1020.55 1020.34 1020.16 1020.06 1020.10 1019.91 1020.19 1019.62 1019.29 1018.76 1017.90 1017.70 1016.83 1015.42 1015.57 1015.53 1016.18 1017.07 1016.88 1016.56 1016.35
1014.54 1014.69 1014.81 1014.94 1015.28 1015.97 1016.73 1017.39 1018.03 1018.91 1019.41 1019.46 1019.40 1019.32 1019.55 1019.74 1019.96 1020.21 1020.38 1020.42 1020.62 1020.58 1020.90 1021.06 1020.88 1020.57 1020.28 1019.42 1019.43 1019.52 1019.76 1019.65 1018.92 1018.40 1017.59 1016.28 1015.92 1017.40 1017.48 1017.43 1017.95 1017.95 1017.57 1016.88
1014.30 1014.69 1014.82 1015.00 1015.08 1015.66 1016.52 1017.22 1017.51 1018.58 1019.31 1019.32 1018.87 1018.97 1019.48 1019.58 1019.83 1020.00 1020.16 1020.21 1020.40 1020.56 1021.01 1021.44 1021.45 1021.14 1020.63 1020.07 1019.65 1019.24 1019.47 1019.48 1019.36 1018.71 1018.03 1017.62 1017.69 1017.76 1017.32 1017.49 1017.46 1017.53 1017.77 1017.41
1014.16 1014.66 1014.93 1015.28 1015.25 1015.53 1016.40 1017.03 1017.28 1018.16 1019.13 1018.93 1018.86 1019.00 1018.96 1019.08 1019.58 1019.93 1020.06 1020.22 1020.56 1020.52 1020.89 1021.66 1021.75 1021.61 1020.94 1020.68 1020.10 1019.79 1019.69 1019.38 1019.09 1018.48 1017.85 1017.66 1017.88 1017.43 1016.88 1017.68 1018.03 1017.15 1017.38 1017.44
1014.01 1014.43 1014.93 1015.21 1015.46 1015.59 1016.31 1016.91 1017.16 1017.82 1018.66 1018.94 1018.89 1018.68 1018.96 1019.03 1019.24 1019.65 1020.22 1020.45 1020.40 1020.60 1021.10 1021.88 1021.78 1021.65 1021.47 1021.11 1020.49 1020.04 1019.88 1019.54 1019.34 1019.01 1018.73 1018.23 1017.84 1017.73 1018.08 1018.16 1017.72 1017.52 1017.33 1017.24
1013.90 1014.35 1014.78 1015.05 1015.59 1015.55 1016.04 1016.95 1017.21 1017.49 1018.42 1019.06 1018.98 1018.71 1018.84 1018.91 1018.84 1019.09 1019.71 1019.73 1020.13 1020.43 1020.88 1021.72 1021.97 1022.21 1022.33 1021.87 1021.20 1020.31 1020.16 1019.25 1018.89 1018.68 1017.85 1017.60 1017.66 1017.71 1017.85 1017.75 1017.75 1017.54 1017.39 1017.11
1013.89 1014.15 1014.42 1014.96 1015.41 1015.79 1016.16 1016.92 1017.36 1017.83 1018.48 1019.01 1019.17 1018.83 1018.43 1018.58 1018.69 1018.55 1019.18 1019.78 1019.77 1020.12 1020.30 1021.38 1022.12 1022.40 1022.30 1022.24 1021.70 1020.99 1019.89 1019.32 1019.25 1018.82 1017.89 1017.94 1017.97 1017.63 1017.72 1017.90 1017.84 1017.73 1017.54 1017.20
1013.76 1013.95 1014.17 1014.60 1015.26 1015.74 1016.40 1016.90 1017.32 1017.70 1018.56 1019.07 1018.96 1018.72 1018.76 1018.36 1018.49 1018.55 1018.54 1019.06 1019.63 1020.02 1020.67 1021.30 1021.75 1022.38 1022.13 1022.24 1022.08 1021.58 1019.94 1019.97 1019.71 1019.31 1018.48 1018.60 1018.31 1018.24 1018.21 1018.21 1018.07 1017.90 1017.69 1017.42
1013.71 1013.84 1014.11 1014.41 1014.97 1015.51 1016.32 1016.88 1017.22 1017.39 1018.33 1018.85 1019.20 1018.97 1018.93 1018.76 1018.56 1018.46 1018.48 1018.95 1019.63 1020.14 1020.97 1021.20 1021.73 1021.90 1022.50 1022.77 1022.61 1020.96 1019.47 1019.67 1019.85 1019.47 1018.89 1019.31 1018.83 1018.59 1018.85 1018.79 1018.69 1018.48 1018.01 1017.37
1014.04 1014.04 1014.18 1014.55 1015.25 1015.73 1016.49 1017.16 1017.48 1017.41 1017.76 1018.80 1019.49 1019.56 1019.34 1019.09 1018.67 1018.84 1018.92 1019.30 1019.82 1020.08 1020.46 1021.13 1021.40 1021.55 1021.67 1022.69 1022.44 1019.25 1019.30 1019.27 1019.46 1019.68 1019.85 1019.69 1019.28 1019.32 1019.82 1019.66 1019.24 1018.94 1018.40 1017.90
1014.45 1014.50 1014.67 1015.23 1015.74 1016.30 1016.91 1017.28 1017.44 1017.42 1017.83 1019.03 1020.14 1020.05 1019.95 1019.58 1019.54 1019.74 1019.78 1019.86 1020.10 1020.36 1020.79 1021.48 1021.88 1021.84 1021.92 1022.64 1021.81 1018.40 1019.96 1020.27 1020.46 1020.77 1020.67 1020.21 1020.20 1020.53 1020.64 1020.15 1019.79 1019.24 1018.67 1018.21
1014.82 1015.01 1015.37 1015.83 1016.23 1016.95 1017.51 1017.60 1017.58 1017.84 1018.73 1019.55 1020.41 1020.63 1020.43 1019.90 1020.05 1020.30 1020.46 1020.35 1020.59 1020.84 1021.04 1021.52 1021.70 1022.13 1022.41 1022.25 1020.62 1020.71 1020.99 1021.20 1021.33 1021.57 1021.69 1021.63 1021.43 1021.03 1021.02 1020.75 1020.25 1019.80 1019.32 1018.72
1015.34 1015.68 1016.03 1016.44 1017.11 1017.74 1017.75 1017.60 1017.93 1018.37 1019.34 1019.94 1020.76 1020.98 1020.88 1020.36 1020.63 1020.48 1020.77 1020.90 1021.33 1021.65 1021.39 1021.46 1021.63 1022.22 1022.38 1021.45 1021.81 1022.11 1022.55 1022.74 1022.70 1022.50 1022.25 1022.05 1021.97 1021.87 1021.76 1021.44 1020.98 1020.58 1019.92 1019.24
1015.95 1016.54 1017.10 1018.08 1018.03 1017.84 1017.84 1018.16 1018.67 1019.00 1019.29 1020.23 1020.59 1020.74 1021.00 1020.86 1020.86 1020.80 1021.08 1021.07 1021.39 1021.71 1021.09 1021.16 1021.58 1021.76 1021.97 1022.90 1023.45 1023.70 1023.90 1023.85 1023.68 1023.38 1022.96 1022.76 1022.60 1022.61 1022.44 1022.16 1021.72 1021.16 1020.51 1019.85
1016.78 1017.71 1018.20 1018.36 1017.96 1018.30 1018.87 1019.55 1020.04 1020.24 1020.40 1020.29 1020.44 1020.77 1020.89 1020.78 1020.76 1020.74 1020.81 1021.28 1021.58 1021.70 1020.97 1021.41 1021.92 1022.54 1023.32 1024.01 1024.33 1024.59 1024.70 1024.55 1024.36 1024.17 1023.94 1023.65 1023.44 1023.22 1022.95 1022.50 1022.00 1021.40 1020.84 1020.34
1016.67 1017.26 1018.03 1018.39 1018.86 1019.78 1020.56 1021.17 1021.37 1021.27 1021.17 1020.90 1020.90 1020.92 1020.97 1020.88 1020.68 1020.66 1021.08 1021.08 1021.40 1021.16 1021.18 1021.99 1022.66 1023.39 1024.09 1024.58 1024.81 1025.00 1025.06 1024.92 1024.68 1024.30 1024.12 1023.76 1023.54 1023.31 1023.14 1022.84 1022.25 1021.71 1021.27 1020.72
1017.15 1017.77 1018.60 1019.17 1020.18 1021.11 1022.03 1022.34 1022.37 1022.25 1021.81 1021.72 1021.40 1021.55 1021.22 1021.07 1020.93 1020.58 1020.48 1020.49 1020.69 1020.82 1021.80 1022.51 1023.54 1024.15 1024.66 1024.99 1025.08 1025.14 1024.98 1024.91 1024.67 1024.33 1023.99 1023.71 1023.42 1023.19 1023.02 1022.67 1022.25 1021.96 1021.51 1020.96
1017.83 1018.73 1019.79 1020.41 1021.39 1021.92 1022.31 1022.71 1022.84 1022.93 1022.68 1022.35 1022.02 1021.72 1021.39 1021.01 1020.82 1020.28 1020.12 1020.01 1020.63 1021.60 1022.60 1023.39 1024.39 1024.80 1025.00 1025.05 1025.10 1025.09 1024.91 1024.82 1024.61 1024.25 1023.92 1023.69 1023.37 1023.04 1022.79 1022.51 1022.20 1021.94 1021.46 1020.82
1019.20 1019.78 1020.77 1021.51 1022.24 1022.84 1023.21 1023.55 1023.71 1023.80 1023.49 1023.07 1022.52 1022.16 1021.84 1021.49 1021.19 1020.72 1020.68 1020.97 1021.52 1022.52 1023.46 1024.20 1024.59 1024.88 1025.09 1025.11 1025.04 1024.91 1024.74 1024.62 1024.41 1024.05 1023.80 1023.52 1023.22 1022.89 1022.41 1022.02 1021.78 1021.63 1021.12 1020.74
1021.12 1021.72 1022.34 1022.69 1023.23 1023.97 1024.24 1024.60 1024.83 1024.81 1024.38 1023.80 1023.50 1023.13 1022.83 1022.57 1022.20 1022.01 1022.18 1022.68 1023.26 1024.15 1024.53 1024.77 1024.94 1025.06 1025.24 1025.20 1024.98 1024.67 1024.44 1024.24 1023.99 1023.72 1023.48 1023.20 1022.93 1022.61 1022.13 1021.68 1021.48 1020.97 1020.61 1020.10
1023.03 1023.59 1023.52 1023.76 1024.19 1024.85 1025.56 1025.86 1026.08 1025.89 1025.57 1025.40 1025.04 1024.85 1024.38 1024.32 1024.02 1024.16 1024.37 1024.75 1025.05 1025.41 1025.51 1025.50 1025.51 1025.53 1025.38 1025.16 1024.86 1024.49 1024.19 1023.89 1023.59 1023.29 1022.99 1022.66 1022.29 1022.24 1022.08 1021.35 1020.22 1020.09 1019.68 1019.34
Wind_Speed
8 6 6 6 3 4 3 3 2 1 1 7 3 12 6 5 7 6 6 1 5 6 7 6 6 9 5 6 7 8 6 4 6 13 1 2 3 8 10 6 7 4 2 20
11 11 9 7 5 5 2 2 0 1 1 7 9 3 11 0 6 8 6 9 7 5 5 3 7 6 4 5 2 4 4 4 3 5 4 3 5 5 5 1 1 18 4 16
15 12 10 10 7 5 2 2 2 1 2 2 2 2 1 6 5 5 3 3 1 3 5 8 6 6 4 4 5 6 2 4 7 15 4 4 5 7 7 10 10 10 23 24
19 18 15 11 10 9 3 1 1 2 2 1 2 2 1 3 1 3 6 3 3 2 5 7 11 6 7 7 10 5 3 13 9 19 12 5 6 11 8 14 16 14 28 18
17 19 18 13 11 12 3 2 2 1 2 2 2 3 2 2 3 3 2 2 2 3 2 3 2 3 2 2 5 5 5 6 5 20 9 6 16 15 8 12 14 19 23 31
15 13 14 16 14 6 3 1 1 2 4 3 1 1 4 5 2 1 2 2 2 1 3 0 3 5 4 3 2 1 2 2 2 4 2 2 11 10 14 4 3 11 11 9
10 10 13 19 21 7 4 3 3 3 2 2 3 7 4 4 1 1 2 2 2 2 5 6 6 8 9 9 10 6 2 1 3 3 1 6 1 10 6 12 10 14 13 16
14 11 12 11 21 15 3 3 4 3 2 2 3 6 5 7 6 4 3 4 4 3 2 2 4 2 2 6 10 12 11 4 3 4 4 5 4 8 5 2 3 10 11 13
9 4 4 8 12 19 3 2 2 3 5 5 1 4 5 3 3 2 3 0 3 3 2 2 3 2 2 3 1 4 7 9 5 1 3 4 3 4 3 6 5 11 6 7
15 11 8 8 6 12 4 2 3 4 3 2 4 3 5 4 3 3 3 4 3 3 2 3 4 4 2 4 3 4 3 2 8 11 7 3 2 6 6 5 5 13 4 10
13 14 13 9 9 7 6 2 3 4 2 1 4 1 3 2 2 4 3 3 1 3 3 3 3 3 3 1 2 4 5 4 5 4 1 5 4 2 3 5 6 8 7 10
8 14 14 11 8 4 9 2 2 3 3 1 1 2 2 2 3 5 3 3 4 3 2 1 1 2 0 3 3 1 3 5 3 5 4 2 4 4 4 7 8 7 8 9
5 7 12 11 11 5 3 2 3 3 1 1 1 5 5 2 5 2 5 2 5 4 3 3 2 3 4 3 5 1 3 2 3 3 4 2 8 12 4 4 5 6 6 8
6 8 9 13 13 10 7 3 2 3 2 1 4 2 4 2 4 7 3 5 4 4 2 2 3 3 2 3 1 3 5 4 3 4 9 5 8 4 4 5 5 7 5 6
5 7 7 12 14 14 6 3 2 3 3 3 3 3 2 3 2 5 4 6 5 3 3 2 3 2 3 0 0 6 6 6 5 6 11 5 11 2 5 6 6 7 9 12
6 6 9 12 18 16 3 2 0 2 2 1 2 3 3 5 3 5 6 4 2 2 2 2 0 2 3 3 4 12 5 4 4 5 2 4 7 6 6 6 8 8 10 11
7 7 14 16 12 4 3 4 3 6 2 2 3 4 3 2 3 2 1 2 1 2 2 2 3 2 5 3 6 18 5 3 2 2 4 4 3 2 11 7 10 12 9 7
8 12 15 15 15 9 4 3 9 5 3 2 2 4 3 1 1 2 1 2 1 1 1 1 3 2 1 6 5 1 3 5 3 4 3 5 7 5 6 7 7 8 9 10
13 17 11 5 4 2 1 5 9 3 2 3 3 4 4 2 1 1 2 2 2 1 2 3 5 3 7 6 0 1 4 2 5 7 5 4 5 6 7 6 7 6 8 9
14 6 5 3 1 5 7 2 1 2 1 3 2 1 2 3 2 2 3 1 3 2 5 4 4 4 3 4 3 2 3 3 3 4 4 5 4 6 7 6 6 6 7 8
4 3 2 3 2 4 3 1 1 2 3 2 0 3 2 2 4 4 3 3 2 2 6 6 3 4 2 4 3 3 3 3 2 2 2 4 4 4 6 8 7 7 8 8
4 5 4 2 3 2 2 1 3 2 4 3 1 1 1 2 2 3 2 4 2 6 2 3 3 3 2 3 3 4 4 3 4 2 4 5 5 5 5 6 6 6 8 9
3 4 3 3 2 3 5 5 4 2 2 3 2 1 0 2 1 2 4 5 6 3 2 4 3 2 2 3 2 3 3 3 4 5 5 5 6 5 3 6 6 6 7 7
2 4 3 5 2 4 4 3 3 0 1 2 1 2 1 1 2 2 4 1 2 2 1 4 2 2 3 3 3 2 6 6 6 7 7 7 6 7 7 6 6 5 8 10
1 2 4 2 2 1 2 2 2 2 2 2 2 2 0 2 3 3 2 2 3 1 2 1 1 2 2 4 5 5 6 5 6 5 5 7 8 7 10 8 6 6 8 9
3 4 3 1 3 1 2 2 2 3 3 2 1 1 1 3 2 2 1 2 1 0 1 2 4 4 5 7 7 8 8 7 8 7 8 9 9 9 11 9 7 9 8 10
3 2 2 2 3 3 2 1 1 3 2 2 2 2 7 2 2 1 1 2 0 2 4 5 5 5 7 8 9 9 8 8 8 7 9 10 7 3 5 11 11 6 9 9
Wind_Direction
208 251 209 193 147 88 52 114 203 8 194 202 215 219 197 211 211 207 203 241 198 196 194 211 226 212 252 180 156 164 218 163 204 211 272 208 210 204 171 186 230 230 146 265
218 217 220 196 156 156 132 137 262 343 339 219 212 214 212 83 205 192 207 214 198 192 195 248 204 190 13 56 107 158 179 232 302 311 10 8 218 212 215 33 72 239 206 265
219 233 232 189 184 159 88 116 198 250 47 360 342 191 107 167 17 69 9 334 323 195 227 227 254 208 46 50 50 7 305 229 212 245 185 106 197 206 209 216 243 267 245 282
215 222 228 199 178 140 103 40 176 351 173 130 104 80 71 98 39 63 9 63 34 61 255 253 255 349 342 58 4 28 33 256 244 265 269 304 264 257 232 217 239 234 274 258
232 219 213 216 185 132 91 144 192 63 80 68 73 27 68 75 82 48 33 66 62 52 67 18 90 27 34 21 3 30 1 292 331 276 287 302 279 285 277 262 268 260 262 273
213 220 204 202 182 143 125 181 39 123 137 137 119 69 66 77 34 59 9 107 97 89 67 295 232 213 221 227 298 273 268 287 20 261 104 339 281 262 234 254 352 307 275 346
278 235 216 204 184 163 127 168 119 108 203 161 167 160 168 181 217 199 80 138 90 134 233 270 265 251 253 246 244 223 251 210 189 259 74 236 79 21 25 83 49 30 13 358
242 255 227 224 194 163 108 147 124 127 169 192 172 174 180 173 215 199 188 178 191 204 231 339 347 341 276 253 230 214 220 238 254 257 217 321 32 24 347 17 104 24 354 349
214 274 305 231 211 188 121 162 126 116 123 239 109 156 179 172 167 147 162 201 153 179 162 214 199 213 245 282 253 200 202 224 255 231 260 250 109 268 312 171 226 353 352 317
185 178 286 330 264 203 163 173 171 106 167 243 152 178 174 150 132 137 148 158 186 164 168 205 197 230 222 228 226 177 194 212 237 249 244 294 133 317 303 26 305 329 315 305
196 191 203 238 305 222 155 135 179 128 136 234 194 226 139 110 140 144 184 75 250 166 207 179 222 198 227 204 236 181 181 177 214 182 313 266 210 292 65 271 283 289 286 285
203 197 194 180 262 326 151 118 135 114 118 176 267 265 277 303 231 140 185 176 165 185 164 195 104 214 98 193 246 176 249 202 204 196 219 127 190 191 245 260 275 282 278 281
218 206 192 194 192 182 121 108 119 82 109 344 208 229 260 143 205 232 147 206 186 171 150 150 185 211 121 189 241 308 258 229 216 51 286 311 329 307 280 287 289 301 292 303
214 210 204 187 173 173 137 131 146 96 86 229 275 337 256 307 204 206 202 138 80 99 123 175 154 180 150 222 251 210 201 144 197 268 285 303 266 268 275 293 295 301 291 267
189 191 173 169 180 178 123 99 181 142 162 198 259 309 307 344 260 194 157 142 131 130 184 171 196 141 154 97 304 256 173 184 168 243 288 249 275 336 338 312 322 317 310 313
68 141 147 140 128 128 104 65 58 140 109 141 334 284 6 356 54 140 134 127 127 145 151 174 4 285 117 159 222 257 134 190 187 245 347 247 276 307 32 321 319 314 314 305
86 92 121 126 121 74 91 174 197 150 94 90 333 306 311 13 78 54 76 89 153 131 140 192 168 234 138 149 227 268 100 109 212 79 324 301 61 320 321 322 317 315 302 304
106 137 123 100 91 80 41 4 131 90 85 74 163 268 1 348 116 112 359 95 58 41 159 156 189 140 122 244 243 287 33 329 141 36 354 261 289 325 332 330 327 332 332 335
119 115 103 68 47 66 249 218 113 68 122 181 127 156 235 51 51 106 108 105 178 318 214 232 155 175 223 243 352 43 32 1 314 313 297 28 22 356 336 329 334 337 333 339
106 49 54 20 15 283 136 35 116 198 182 51 188 63 214 119 166 133 147 208 202 183 235 134 217 240 64 17 357 358 329 325 340 6 355 355 5 355 338 322 313 313 323 325
46 69 89 227 338 50 28 19 122 309 341 219 318 164 156 264 132 178 186 186 202 165 246 164 224 254 306 331 343 334 342 346 320 213 267 289 278 296 316 320 320 331 337 335
166 125 120 83 66 60 101 271 328 221 244 327 182 177 204 281 77 106 215 189 150 242 128 149 248 272 1 7 343 328 337 347 343 316 281 297 295 279 277 286 305 321 321 320
45 53 86 99 298 52 147 217 283 279 332 343 0 327 219 23 169 221 186 220 221 101 146 224 225 311 11 334 320 325 299 308 308 311 292 290 291 292 252 291 293 298 299 298
161 147 192 175 279 239 186 175 174 266 2 353 337 294 156 181 215 248 251 200 144 209 277 240 267 264 292 307 301 315 305 310 302 299 299 297 293 294 295 277 271 284 297 303
90 82 207 169 148 105 195 181 102 24 303 337 358 308 195 265 255 208 277 227 245 87 226 248 257 251 283 302 312 304 298 294 291 279 283 284 284 286 291 286 266 267 283 283
54 50 94 86 77 358 44 19 84 15 324 270 260 267 231 260 286 312 337 321 232 154 21 353 327 311 312 309 307 300 291 281 282 278 280 284 283 278 285 295 277 271 266 273
61 16 10 24 60 96 98 10 1 347 38 154 68 125 216 332 5 349 21 171 357 7 310 303 304 299 296 295 292 291 288 286 280 278 279 277 276 279 295 288 291 263 265 258